Flag for China Weather past 2 weeks in Hangzhou, Zhejiang, China

48 °F

Light rain. Fog.

Feels Like: 47 °F
Forecast: 40 / 59 °F
Wind: 3 mph from West

Location: Hangzhou Airport

Current Time: Nov 29, 2015 at 8:59:53 AM

Latest Report: Nov 29, 2015 at 8:00 AM

Visibility: 1 mi

Pressure: 30.33 "Hg

Humidity: 94%

Dew point: 46 °F

Location of HangzhouLocation

Historic Weather in Hangzhou — Graph


Hangzhou temperature yesterday

Maximum temperature yesterday: 55 °F (at 12:00 PM)
Minimum temperature yesterday: 41 °F (at 1:30 AM)
Average temperature yesterday: 48 °F

Past Weeks' High & Low Weather Summary

High72 °F (Nov 15, 1:30 PM)100% (Nov 16, 4:00 AM)30.48 "Hg (Nov 16, 4:00 AM)
Low28 °F (Nov 27, 6:30 AM)29% (Nov 27, 2:00 PM)29.92 "Hg (Nov 16, 4:30 AM)
Average55 °F85%30.21 "Hg
* Reported Nov 14 8:00 AM — Nov 29 7:30 AM, Hangzhou, Weather by CustomWeather, © 2015

Note: Actual official high and low records may vary slightly from our data, if they occured in-between our weather recording intervals... More about our weather records


Hangzhou weather history for previous 24 hours

Time TempWeatherWind HumidityBarometerVisibility
7:30 AM
Sun, Nov 29
48 °FLight rain. Fog.1 mph100%30.33 "Hg1 mi
7:00 AM48 °FLight rain. Fog.3 mph94%30.33 "Hg1 mi
6:00 AM48 °FLight rain. Fog.1 mph100%30.30 "Hg1 mi
5:30 AM48 °FLight rain. Fog.1 mph100%30.30 "Hg1 mi
4:30 AM48 °FLight rain. Fog.1 mph94%30.30 "Hg2 mi
4:00 AM48 °FLight rain. Fog.1 mph94%30.30 "Hg2 mi
3:30 AM48 °FLight rain. Fog.3 mph100%30.30 "Hg2 mi
3:00 AM48 °FLight rain. Fog.1 mph94%30.33 "Hg2 mi
2:30 AM48 °FLight rain. Fog.No wind94%30.33 "Hg2 mi
2:00 AM48 °FLight rain. Fog.No wind94%30.33 "Hg2 mi
1:30 AM48 °FLight rain. Fog.1 mph94%30.33 "Hg2 mi
1:00 AM48 °FLight rain. Fog.1 mph100%30.33 "Hg2 mi
12:30 AM48 °FLight rain. Fog.1 mph100%30.36 "Hg2 mi
12:00 AM48 °FLight rain. Fog.No wind94%30.36 "Hg2 mi
11:30 PM
Sat, Nov 28
48 °FLight rain. Fog.1 mph94%30.33 "Hg2 mi
11:00 PM50 °FLight rain. Fog.6 mph88%30.33 "Hg3 mi
10:30 PM50 °FLight rain. Fog.3 mph88%30.36 "Hg3 mi
10:00 PM48 °FLight rain. Fog.No wind94%30.36 "Hg3 mi
9:30 PM48 °FLight rain. Fog.No wind94%30.36 "Hg3 mi
9:00 PM50 °FLight rain. Fog.1 mph88%30.36 "Hg3 mi
8:30 PM50 °FLight rain. Fog.1 mph88%30.36 "Hg3 mi
8:00 PM50 °FLight rain. Fog.1 mph88%30.36 "Hg3 mi
7:30 PM50 °FLight rain. Fog.1 mph88%30.36 "Hg3 mi
7:00 PM50 °FLight rain. Partly cloudy.1 mph82%30.36 "Hg4 mi
6:30 PM50 °FLight rain. Passing clouds.3 mph82%30.36 "Hg4 mi
6:00 PM52 °FLight rain. Passing clouds.3 mph77%30.33 "Hg4 mi
5:30 PM52 °FLight rain. Passing clouds.1 mph72%30.33 "Hg4 mi
5:00 PM52 °FPassing clouds.No wind72%30.33 "Hg4 mi
4:30 PM54 °FScattered clouds.No wind67%30.33 "Hg4 mi
4:00 PM54 °FLight rain. Scattered clouds.No wind72%30.33 "Hg4 mi
3:30 PM54 °FLight rain. Passing clouds.1 mph58%30.33 "Hg4 mi
2:30 PM55 °FLight rain. Passing clouds.3 mph51%30.33 "Hg4 mi
2:00 PM55 °FClear.6 mph51%30.33 "Hg5 mi
1:30 PM55 °FClear.3 mph47%30.33 "Hg5 mi
1:00 PM55 °FClear.1 mph44%30.33 "Hg5 mi
12:30 PM55 °FPassing clouds.1 mph44%30.33 "HgN/A
12:00 PM55 °FPassing clouds.3 mph44%30.36 "HgN/A
11:30 AM54 °FPassing clouds.3 mph44%30.36 "HgN/A
11:00 AM54 °FPassing clouds.3 mph44%30.39 "HgN/A
10:30 AM52 °FPassing clouds.1 mph47%30.39 "HgN/A
10:00 AM50 °FPassing clouds.1 mph54%30.42 "Hg5 mi
9:30 AM48 °FPassing clouds.1 mph62%30.42 "HgN/A
8:00 AM45 °FSunny.No wind71%30.39 "Hg10 mi
Weather by CustomWeather, © 2015

See weather overviewHow to use our weather pages